Weather in Dêqên

China     27°49′13″N   99°42′15″E
temp.,
°C
wind,
m/s
gust,
m/s
humid.,
%
clouds,
%
prec.,
mm/h
press.,
hPa
HPBL,
m
17 june, thu
thu1723:00+10ssw2296100 0.2 101018
02:00+9sw2299100 0.9 101154
05:00+10wsw129899 0.3 1010195
08:00+11wsw129195 0.5 1011318
11:00+14wsw2273100 0.4 1009967
14:00+16wsw236791 1.5 10071144
17:00+15sw3468100 0.8 10061040
20:00+12ssw2290100 1.3 100838
18 june, fri
fri1823:00+9s229736 0.1 101222
02:00+9sw229972 0.3 101257
05:00+9wsw1298100 0.3 1011132
08:00+10wsw129495 0.4 1012249
11:00+11wsw228798 0.3 1012484
14:00+16wsw446139 0.8 10061322
17:00+13sw3482100 2.2 1007812
20:00+11sw239076 2.6 1009188
19 june, sat
sat1923:00+9sw239698 0.1 1012168
02:00+9sw2398100 0.3 1012214
05:00+8wsw129888 0.2 1012152
08:00+8wsw1297100 0.3 1012189
11:00+9wsw129699 0.4 1012290
14:00+15wsw346670 1.0 10071219
17:00+16wsw445961 0.4 10041318
20:00+11sw238274 0.6 1008121
20 june, sun
sun2023:00+7sw229843 0.1 101255
02:00+8wsw229798 0.3 1011177
05:00+7w129883 0.2 101165
08:00+8w129388 0.3 1011271
11:00+12wsw2373100 0.3 1008925
14:00+16wsw4458100 0.6 10051275
17:00+16wsw445563 0.2 10041456
20:00+11sw228119 0.3 100757
21 june, mon
mon2123:00+7sw229650 0.0 101126
02:00+8wsw229581 0.1 101084
05:00+7wsw129873 0.0 1010105
08:00+9w228490 0.1 1009415
11:00+12w127096 0.1 1009827
14:00+18wsw324973 0.4 10031790
17:00+15sw3466100 0.2 1003637
20:00+12ssw2282100 0.3 100623